EW9929 Weather Reports


time (UTC)temp
C
wind
direction
speed
KPH
gust
KPH
rain 1hr
cm
rain 24hr
cm
rain mn
cm
humidity
%
barometer
mb
20260507080013 11 317 0.0 0.0 0.00 0.00 0.00 56 1009.9
20260507074511 11 317 0.0 0.0 0.00 0.00 0.00 56 1009.9
20260507073008 10 317 0.0 0.0 0.00 0.00 0.00 60 1009.9
20260507071507 11 317 0.0 0.0 0.00 0.00 0.00 58 1010.0
20260507070010 11 317 0.0 0.0 0.00 0.00 0.00 59 1010.0
20260507064506 11 317 0.0 0.0 0.00 0.00 0.00 58 1010.6
20260507063003 10 317 0.0 0.0 0.00 0.00 0.00 60 1010.6
20260507061601 11 317 0.0 0.0 0.00 0.00 0.00 59 1010.6
20260507060059 12 317 0.0 0.0 0.00 0.00 0.00 56 1010.4
20260507054607 12 317 0.0 0.0 0.00 0.00 0.00 49 1010.6
20260507053026 12 319 0.0 0.0 0.00 0.00 0.00 51 1010.6
20260507051525 12 319 0.0 0.0 0.00 0.00 0.00 50 1010.6
20260507050024 12 319 0.0 0.0 0.00 0.00 0.00 49 1010.4
20260507044520 12 313 0.0 0.0 0.00 0.00 0.00 50 1010.9
20260507043019 12 313 0.0 0.0 0.00 0.00 0.00 58 1011.2
20260507041532 13 313 0.0 0.0 0.00 0.00 0.00 49 1010.4
20260507040014 13 313 0.0 0.0 0.00 0.00 0.00 50 1010.3
20260507034515 13 312 0.0 0.0 0.00 0.00 0.00 54 1010.5
20260507033014 13 308 0.0 0.0 0.00 0.00 0.00 54 1010.5
20260507031512 13 308 0.0 0.0 0.00 0.00 0.00 56 1010.3
20260507030043 12 316 0.0 0.0 0.00 0.00 0.00 62 1010.4
20260507024540 12 305 0.0 0.0 0.00 0.00 0.00 66 1010.8
20260507023034 13 305 0.0 0.0 0.00 0.00 0.00 64 1010.3
20260507021531 13 305 0.0 0.0 0.00 0.00 0.00 61 1010.4
20260507020030 13 303 0.0 0.0 0.00 0.00 0.00 59 1010.0
20260507014546 14 278 0.0 0.0 0.00 0.00 0.00 58 1011.4
20260507013112 14 92 0.0 0.0 0.00 0.00 0.00 57 1010.9
20260507011554 15 1 0.0 0.0 0.00 0.00 0.00 56 1010.8
20260507010048 15 0 0.0 0.0 0.00 0.00 0.00 54 1010.7
20260507004548 15 1 0.0 0.0 0.00 0.00 0.00 54 1010.8
20260507003043 16 1 0.0 0.0 0.00 0.00 0.00 52 1010.6
20260507001555 16 356 0.0 0.0 0.00 0.00 0.00 50 1010.5
20260507000039 16 356 0.0 0.0 0.00 0.00 0.00 48 1010.4
20260506234507 16 293 0.0 0.0 0.00 0.00 0.00 48 1010.4
20260506233006 17 319 0.0 0.0 0.00 0.00 0.00 46 1010.4
20260506231501 17 351 0.0 0.0 0.00 0.00 0.00 46 1010.5
20260506230058 18 5 0.0 0.0 0.00 0.00 0.00 42 1009.9
20260506224556 18 25 0.0 0.0 0.00 0.00 0.00 44 1010.0
20260506223108 20 97 1.6 0.0 0.00 0.00 0.00 28 1010.0
20260506221550 20 52 1.6 0.0 0.00 0.00 0.00 28 1010.1
20260506220051 19 46 4.8 0.0 0.00 0.00 0.00 29 1010.4
20260506214551 20 99 1.6 0.0 0.00 0.00 0.00 31 1009.8
20260506213047 19 59 1.6 0.0 0.00 0.00 0.00 29 1010.2
20260506211544 19 66 1.6 0.0 0.00 0.00 0.00 31 1010.7
20260506210041 18 60 3.2 0.0 0.00 0.00 0.00 33 1010.7
20260506204533 18 60 3.2 0.0 0.00 0.00 0.00 31 1010.7
20260506203040 18 75 4.8 0.0 0.00 0.00 0.00 33 1010.7
20260506201600 18 79 1.6 0.0 0.00 0.00 0.00 33 1010.9
20260506200137 18 70 3.2 0.0 0.00 0.00 0.00 34 1011.0
20260506194558 18 56 1.6 0.0 0.00 0.00 0.00 33 1011.0
20260506193049 18 63 1.6 0.0 0.00 0.00 0.00 36 1011.0
20260506191546 17 79 0.0 0.0 0.00 0.00 0.00 43 1011.3
20260506190040 16 73 1.6 0.0 0.00 0.00 0.00 37 1011.6
20260506184533 16 60 1.6 0.0 0.00 0.00 0.00 38 1012.0
20260506183030 16 60 1.6 0.0 0.00 0.00 0.00 39 1012.1
20260506181530 16 83 0.0 0.0 0.00 0.00 0.00 42 1012.5
20260506180031 15 93 0.0 0.0 0.00 0.00 0.00 45 1012.4
20260506174550 15 55 1.6 0.0 0.00 0.00 0.00 45 1012.3
20260506173057 15 59 0.0 0.0 0.00 0.00 0.00 47 1012.2
20260506171550 13 58 1.6 0.0 0.00 0.00 0.00 47 1012.7
20260506170040 12 59 3.2 0.0 0.00 0.00 0.00 48 1012.7
20260506164537 12 77 4.8 0.0 0.00 0.00 0.00 53 1012.6
20260506163044 11 70 4.8 0.0 0.00 0.00 0.00 55 1012.9
20260506161541 11 63 3.2 0.0 0.00 0.00 0.00 57 1012.7
20260506160029 12 62 0.0 0.0 0.00 0.00 0.00 55 1012.5
20260506154529 12 59 1.6 0.0 0.00 0.00 0.00 56 1012.3
20260506153027 11 58 1.6 0.0 0.00 0.00 0.00 57 1012.2
20260506151524 11 39 0.0 0.0 0.00 0.00 0.00 59 1012.4
20260506150025 10 336 0.0 0.0 0.00 0.00 0.00 61 1012.4
20260506144525 10 332 0.0 0.0 0.00 0.00 0.00 63 1012.4
20260506143020 10 317 0.0 0.0 0.00 0.00 0.00 57 1012.2
20260506141514 8 317 0.0 0.0 0.00 0.00 0.00 61 1012.5
20260506140013 7 313 0.0 0.0 0.00 0.00 0.00 69 1012.8
20260506134525 5 313 0.0 0.0 0.00 0.00 0.00 71 1013.1
20260506133012 5 313 0.0 0.0 0.00 0.00 0.00 75 1013.2
20260506131509 4 313 0.0 0.0 0.00 0.00 0.00 78 1013.0
20260506130008 4 313 0.0 0.0 0.00 0.00 0.00 78 1013.0
20260506124512 3 313 0.0 0.0 0.00 0.00 0.00 80 1012.6
20260506123007 3 313 0.0 0.0 0.00 0.00 0.00 81 1012.5
20260506121509 3 313 0.0 0.0 0.00 0.00 0.00 83 1012.7
20260506120009 3 313 0.0 0.0 0.00 0.00 0.00 85 1012.7
20260506114504 3 313 0.0 0.0 0.00 0.00 0.00 87 1012.4
20260506113006 3 313 0.0 0.0 0.00 0.00 0.00 88 1012.3
20260506111622 3 313 0.0 0.0 0.00 0.00 0.00 88 1012.2
20260506104606 3 313 0.0 0.0 0.00 0.00 0.00 87 1011.8
20260506103106 3 313 0.0 0.0 0.00 0.00 0.00 86 1011.8
20260506101558 3 313 0.0 0.0 0.00 0.00 0.00 85 1011.7
20260506100033 3 313 0.0 0.0 0.00 0.00 0.00 84 1011.8
20260506094527 3 313 0.0 0.0 0.00 0.00 0.00 84 1011.7
20260506093022 4 313 0.0 0.0 0.00 0.00 0.00 84 1011.6
20260506091521 3 312 0.0 0.0 0.00 0.00 0.00 85 1011.6
20260506090020 4 312 0.0 0.0 0.00 0.00 0.00 85 1011.5
20260506084521 4 326 0.0 0.0 0.00 0.00 0.00 85 1012.2
20260506083108 4 332 0.0 0.0 0.00 0.00 0.00 84 1012.2
20260506081551 4 332 0.0 0.0 0.00 0.00 0.00 83 1012.0